KUIPER-00039

Last updated on Thu Jul 03 2025 00:02:07 GMT+0000 (Coordinated Universal Time)

1 64500U 25134A 25183.58335648 .00000156 00000+0 15844-4 0 9998 2 64500 51.8682 287.0024 0008404 144.5570 294.6805 15.34559213 1308
UTC large
Height (km)
Speed (km/s)
/
Latitude / Longitude
Inclination (degrees)
Orbital Period (minutes)
Azimuth
Elevation
Range (km)
Doppler Factor

Next 0 passes for location: London (51.5072 / 0.1276)

Sorry there are no passes over London.